Baton Rouge, LA

6:45 PM CDT on September 22, 2017 (GMT -0500)
Baton Rouge Metro-Ryan

Weather History for KBTR - August, 2013

Change the Weather History Date:

Friday, August 16, 2013

  Actual Average Record
Temperature  
Mean Temperature 81 °F 83 °F  
Max Temperature 90 °F 93 °F 99 °F (1943)
Min Temperature 71 °F 74 °F 60 °F (2004)
Degree Days  
Heating Degree Days 0 0  
Month to date heating degree days 0 0  
Since 1 June heating degree days 0 0  
Since 1 July heating degree days 0 0  
Cooling Degree Days 16 18  
Month to date cooling degree days 298 288  
Year to date cooling degree days 1737 1893  
Since 1 June cooling degree days 1314 1328  
Growing Degree Days 30 (Base 50)    
Moisture  
Dew Point 70 °F    
Average Humidity 73    
Maximum Humidity 93    
Minimum Humidity 52    
Precipitation  
Precipitation 0.00 in 0.19 in 2.00 in (1922)
Month to date precipitation 2.21 3.09  
Year to date precipitation 51.51 38.98  
Snow  
Snow 0.00 in - - ()
Month to date snowfall 0.0  
Since 1 June snowfall 0.0  
Since 1 July snowfall 0.0  
Snow Depth 0.00 in    
Sea Level Pressure  
Sea Level Pressure 29.95 in    
Wind  
Wind Speed 3 mph (NNE)    
Max Wind Speed 9 mph    
Max Gust Speed 14 mph    
Visibility 10 miles    
Events      
T = Trace of Precipitation, MM = Missing Value Source: NWS Daily Summary

Daily Weather History Graph

Daily Weather History Graph

Search for Another Location

Airport or City:

Trip Planner

Search our weather history database for the weather conditions in past years. The results will help you decide how hot, cold, wet, or windy it might be!

Date:

Astronomy

Aug. 16, 2013 Rise Set
Actual Time 6:32 AM CDT 7:45 PM CDT
Civil Twilight 6:06 AM CDT 8:10 PM CDT
Nautical Twilight 5:36 AM CDT 8:40 PM CDT
Astronomical Twilight 5:05 AM CDT 9:11 PM CDT
Moon 3:56 PM CDT (8/16) 1:42 AM CDT (8/16)
Length of Visible Light 14h 03m
Length of Day
13h 13m
Waxing Gibbous, 75% of the Moon is Illuminated
Aug 16
Waxing Gibbous
Aug 20
Full
Aug 28
Last Quarter
Sep 5
New
Sep 12
First Quarter

Hourly Weather History & Observations

Time (CDT) Temp. Heat Index Dew Point Humidity Pressure Visibility Wind Dir Wind Speed Gust Speed Precip Events Conditions
12:53 AM 75.9 °F - 70.0 °F 82% 29.96 in 10.0 mi NE 4.6 mph - N/A   Mostly Cloudy
1:53 AM 73.9 °F - 70.0 °F 87% 29.95 in 10.0 mi NE 3.5 mph - N/A   Scattered Clouds
2:53 AM 73.9 °F - 70.0 °F 87% 29.94 in 10.0 mi NE 4.6 mph - N/A   Partly Cloudy
3:53 AM 73.0 °F - 69.1 °F 87% 29.94 in 10.0 mi NNE 3.5 mph - N/A   Mostly Cloudy
4:53 AM 72.0 °F - 69.1 °F 91% 29.94 in 10.0 mi Calm Calm - N/A   Clear
5:53 AM 71.1 °F - 69.1 °F 93% 29.95 in 9.0 mi Calm Calm - N/A   Clear
6:53 AM 71.1 °F - 68.0 °F 90% 29.96 in 8.0 mi NNE 4.6 mph - N/A   Clear
7:53 AM 72.0 °F - 69.1 °F 91% 29.98 in 8.0 mi NNE 3.5 mph - N/A   Partly Cloudy
8:53 AM 75.9 °F - 71.1 °F 85% 29.99 in 9.0 mi NE 3.5 mph - N/A   Clear
9:53 AM 81.0 °F 85.2 °F 72.0 °F 74% 29.99 in 10.0 mi Calm Calm - N/A   Partly Cloudy
10:53 AM 84.0 °F 89.0 °F 71.1 °F 65% 29.99 in 10.0 mi Calm Calm - N/A   Scattered Clouds
11:53 AM 86.0 °F 91.5 °F 71.1 °F 61% 29.97 in 10.0 mi Variable 3.5 mph - N/A   Partly Cloudy
12:53 PM 84.9 °F - - N/A% 29.96 in 10.0 mi Variable 3.5 mph - N/A   Scattered Clouds
1:53 PM 88.0 °F 91.4 °F 68.0 °F 51% 29.95 in 10.0 mi NNW 3.5 mph - N/A   Partly Cloudy
2:53 PM 89.1 °F 94.1 °F 70.0 °F 53% 29.92 in 10.0 mi NW 6.9 mph - N/A   Partly Cloudy
3:53 PM 90.0 °F 95.4 °F 70.0 °F 52% 29.91 in 10.0 mi Variable 3.5 mph - N/A   Partly Cloudy
4:53 PM 88.0 °F 92.1 °F 69.1 °F 53% 29.92 in 10.0 mi NW 4.6 mph - N/A   Partly Cloudy
5:53 PM 88.0 °F 91.4 °F 68.0 °F 51% 29.92 in 10.0 mi NNW 4.6 mph - N/A   Clear
6:53 PM 86.0 °F 90.7 °F 70.0 °F 59% 29.93 in 10.0 mi Calm Calm - N/A   Clear
7:53 PM 81.0 °F 84.4 °F 70.0 °F 69% 29.94 in 10.0 mi North 5.8 mph - N/A   Clear
8:53 PM 79.0 °F - 69.1 °F 72% 29.96 in 10.0 mi North 4.6 mph - N/A   Clear
9:53 PM 77.0 °F - 70.0 °F 79% 29.98 in 10.0 mi Calm Calm - N/A   Clear
10:53 PM 75.9 °F - 70.0 °F 82% 29.97 in 10.0 mi NE 3.5 mph - N/A   Clear
11:53 PM 75.0 °F - 71.1 °F 87% 29.97 in 10.0 mi Calm Calm - N/A   Scattered Clouds